Location: Southlake
(32.9412°N, 97.1342°W)
Time: 19:53:29
(UTC+00:00)

N. Korean satellite - Visible Passes

Search period start: 09 December 2022 00:00
Search period end: 19 December 2022 00:00
Orbit: 420 x 452 km, 97.3° (Epoch: 08 December)

Date Brightness Start Highest point End Pass type
(mag) Time Alt. Az. Time Alt. Az. Time Alt. Az.
09 Dec 8.6 11:10:06 10° NE 11:12:55 25° E 11:15:43 10° SSE visible
09 Dec 8.3 12:43:48 10° NW 12:45:06 12° WNW 12:46:24 10° W visible
10 Dec 6.7 12:03:04 10° N 12:06:15 42° WNW 12:09:22 10° SSW visible
11 Dec 9.8 00:01:42 10° SW 00:03:25 13° W 00:05:10 10° WNW visible
11 Dec 7.6 11:23:57 10° NNE 11:27:08 41° E 11:30:15 10° S visible
12 Dec 9.9 10:46:50 10° ENE 10:47:46 11° E 10:48:41 10° ESE visible
12 Dec 7.3 12:17:26 10° NNW 12:20:15 26° WNW 12:23:02 10° SW visible
13 Dec 6.5 11:37:49 10° NNE 11:41:08 72° E 11:44:24 10° S visible
14 Dec 9.3 10:59:30 10° NE 11:01:46 17° E 11:03:59 10° SE visible
14 Dec 7.9 12:31:53 10° NNW 12:34:04 17° WNW 12:36:14 10° WSW visible
15 Dec 6.2 11:52:42 19° N 11:54:56 66° WNW 11:58:10 10° SSW visible
15 Dec 9.5 23:49:24 10° SW 23:51:55 19° W 23:54:27 10° NW visible
16 Dec 8.5 11:13:25 15° NE 11:15:32 26° E 11:18:21 10° SSE visible
16 Dec 8.3 12:46:49 10° NW 12:47:41 11° WNW 12:48:31 10° W visible
17 Dec 6.7 12:07:23 28° NNW 12:08:32 38° WNW 12:11:35 10° SW visible
18 Dec 9.9 00:04:03 10° WSW 00:05:36 13° W 00:07:09 10° WNW visible
18 Dec 7.5 11:27:53 29° NE 11:29:07 43° E 11:32:14 10° S visible
